MDT,Max TemperatureF,Mean TemperatureF,Min TemperatureF,Max Dew PointF,MeanDew PointF,Min DewpointF,Max Humidity, Mean Humidity, Min Humidity, Max Sea Level PressureIn, Mean Sea Level PressureIn, Min Sea Level PressureIn, Max VisibilityMiles, Mean VisibilityMiles, Min VisibilityMiles, Max Wind SpeedMPH, Mean Wind SpeedMPH, Max Gust SpeedMPH,PrecipitationIn, CloudCover, Events, WindDirDegrees
2013-8-1,69,54,40,55,52,36,94,74,53,30.14,30.08,29.99,20,14,9,12,7,,0.04,7,Rain,34
2013-8-2,62,52,43,57,55,39,100,87,51,30.15,30.02,29.97,20,10,4,16,7,21,0.02,7,Rain,40
2013-8-3,69,55,41,55,53,46,100,82,45,30.17,30.12,30.03,20,9,0,12,6,,0.08,6,Fog-Rain,37
2013-8-4,74,61,48,57,52,42,100,74,32,30.12,30.05,29.99,15,10,9,18,7,25,0.08,3,Rain-Thunderstorm,237
2013-8-5,71,61,51,57,52,33,100,75,16,30.09,30.00,29.94,20,12,9,22,13,30,0.00,4,Rain-Thunderstorm,274
2013-8-6,75,62,48,55,52,45,100,71,30,30.19,30.04,29.98,15,10,9,16,12,20,0.00,4,Rain-Thunderstorm,316
2013-8-7,80,68,55,63,56,45,100,79,19,30.21,30.04,29.99,15,8,5,15,8,17,0.03,6,Rain-Thunderstorm,81
2013-8-8,77,66,55,57,55,46,94,86,45,30.22,30.12,30.06,20,10,4,13,8,18,0.01,8,Rain,358
2013-8-9,76,63,50,59,54,49,100,76,28,30.22,30.14,30.00,20,9,3,12,6,,0.04,5,,77
2013-8-10,77,64,51,64,57,48,100,75,26,30.07,30.05,29.99,20,12,9,13,6,17,0.04,5,Rain-Thunderstorm,129
2013-8-11,80,68,55,64,58,46,100,77,26,30.08,30.03,29.97,20,10,4,23,8,29,0.03,7,Rain-Thunderstorm,5
2013-8-12,77,67,57,61,57,50,94,79,50,30.14,30.06,29.98,20,13,9,22,8,23,0.01,5,Rain-Thunderstorm,308
2013-8-13,77,65,53,63,56,50,100,85,57,30.14,30.09,30.02,20,8,1,13,5,18,0.04,4,,164
2013-8-14,86,68,51,56,51,44,94,62,15,30.05,29.97,29.66,15,11,9,13,7,20,0.03,2,,225
2013-8-15,82,66,51,66,51,45,88,60,22,29.93,29.89,29.68,20,13,9,16,8,28,0.00,4,,236
2013-8-16,84,62,41,55,48,38,88,54,25,29.94,29.87,29.81,20,11,9,22,10,37,0.04,4,,249
2013-8-17,82,66,49,53,48,45,92,51,25,29.96,29.88,29.68,15,10,9,21,14,32,0.04,3,,254
2013-8-18,82,66,51,56,47,39,96,51,20,29.93,29.83,29.43,20,11,9,29,12,38,0.01,3,,253
2013-8-19,84,68,52,53,45,41,95,44,20,29.88,29.77,29.32,15,10,9,28,17,43,0.00,2,,254
2013-8-20,78,62,45,50,42,28,93,54,14,30.01,29.86,29.45,15,10,9,28,13,38,0.00,1,,291
2013-8-21,77,58,39,48,44,39,100,67,26,30.21,30.08,29.64,15,10,9,16,9,,0.08,1,,125
2013-8-22,82,61,40,54,42,34,93,59,16,30.10,29.95,29.45,20,13,9,15,7,17,0.39,4,,178
2013-8-23,82,61,40,55,49,29,82,53,24,29.83,29.75,29.40,20,15,9,26,9,43,0.00,6,Rain-Thunderstorm,263
2013-8-24,82,58,34,52,44,25,82,54,23,29.94,29.80,29.67,15,11,9,30,16,33,0.00,1,,241
2013-8-25,84,58,32,54,44,24,87,50,25,30.11,29.88,29.81,20,14,5,23,13,37,0.00,5,,253
2013-8-26,82,58,33,52,42,27,72,46,17,30.10,29.90,29.82,20,13,9,28,13,48,0.04,3,,237
2013-8-27,86,64,42,48,42,39,93,53,19,29.98,29.90,29.78,15,11,9,34,9,29,0.16,1,,232
2013-8-28,80,60,39,59,48,36,89,65,28,29.99,29.92,29.88,20,13,7,16,8,26,0.03,4,Rain,210
2013-8-29,73,54,36,57,49,31,94,64,20,30.04,29.96,29.83,20,12,9,41,10,56,0.03,4,Rain,221
2013-8-30,78,60,41,52,44,35,82,50,20,30.02,29.94,29.81,15,10,9,28,15,44,0.00,3,,241
2013-8-31,73,57,41,46,42,37,93,59,25,30.17,30.07,29.61,15,10,9,17,11,21,0.00,2,,265